• In Sweden
  • List of Countries
  • For 7 days
  • Water Temperature
  • Satellite Maps
  • Weather Map
  • Weather Widgets
  • user-avatar
    Login

    Hourly Weather Newcastle upon Tyne

    Today, 24 September, Sunday

    Time Temperature Precipitation Wind Pressure Humidity
    00:00 +14°C° 0 mm 5 mps 757 mmHg 83%
    01:00 +13°C° 0 mm 5 mps 757 mmHg 81%
    02:00 +13°C° 0 mm 5 mps 757 mmHg 79%
    03:00 +13°C° 0 mm 5 mps 757 mmHg 77%
    04:00 +12°C° 0 mm 5 mps 757 mmHg 78%
    05:00 +12°C° 0 mm 5 mps 757 mmHg 79%
    06:00 +10°C° 0 mm 5 mps 757 mmHg 79%
    07:00 +12°C° 0 mm 5 mps 757 mmHg 77%
    08:00 +13°C° 0 mm 6 mps 758 mmHg 75%
    09:00 +14°C° 0 mm 6 mps 758 mmHg 73%
    10:00 +15°C° 0 mm 6 mps 758 mmHg 71%
    11:00 +16°C° 0 mm 6 mps 758 mmHg 69%
    12:00 +19°C° 0 mm 6 mps 758 mmHg 67%
    13:00 +17°C° 0 mm 6 mps 758 mmHg 68%
    14:00 +17°C° 0 mm 6 mps 758 mmHg 70%
    15:00 +17°C° 0 mm 5 mps 757 mmHg 71%
    16:00 +17°C° 0 mm 5 mps 757 mmHg 73%
    17:00 +16°C° 0 mm 5 mps 757 mmHg 76%
    18:00 +15°C° 0 mm 5 mps 758 mmHg 78%
    19:00 +15°C° 0 mm 5 mps 758 mmHg 79%
    20:00 +15°C° 0 mm 5 mps 758 mmHg 79%
    21:00 +14°C° 0 mm 5 mps 758 mmHg 80%
    22:00 +14°C° 0 mm 5 mps 758 mmHg 81%
    23:00 +14°C° 0 mm 5 mps 758 mmHg 82%

    Tomorrow, 25 September, Monday

    Time Temperature Precipitation Wind Pressure Humidity
    00:00 +14°C° 0 mm 5 mps 758 mmHg 83%
    01:00 +14°C° 0.1 mm 5 mps 758 mmHg 85%
    02:00 +14°C° 0.1 mm 4 mps 758 mmHg 86%
    03:00 +13°C° 0.1 mm 4 mps 758 mmHg 88%
    04:00 +13°C° 0.1 mm 4 mps 758 mmHg 89%
    05:00 +13°C° 0.1 mm 4 mps 758 mmHg 91%
    06:00 +13°C° 0.1 mm 4 mps 758 mmHg 92%
    07:00 +14°C° 0.4 mm 4 mps 758 mmHg 92%
    08:00 +14°C° 0.4 mm 3 mps 758 mmHg 92%
    09:00 +14°C° 0.4 mm 3 mps 759 mmHg 92%
    10:00 +16°C° 0.1 mm 3 mps 759 mmHg 87%
    11:00 +17°C° 0.1 mm 4 mps 759 mmHg 83%
    12:00 +18°C° 0.1 mm 4 mps 759 mmHg 78%
    13:00 +18°C° 0.1 mm 4 mps 759 mmHg 78%
    14:00 +18°C° 0.1 mm 4 mps 759 mmHg 79%
    15:00 +18°C° 0.1 mm 4 mps 759 mmHg 79%
    16:00 +17°C° 0 mm 3 mps 759 mmHg 82%
    17:00 +16°C° 0 mm 3 mps 759 mmHg 86%
    18:00 +15°C° 0 mm 2 mps 759 mmHg 89%
    19:00 +15°C° 0 mm 2 mps 759 mmHg 91%
    20:00 +15°C° 0 mm 2 mps 759 mmHg 92%
    21:00 +14°C° 0 mm 2 mps 760 mmHg 94%
    22:00 +14°C° 0 mm 1 mps 759 mmHg 94%
    23:00 +14°C° 0 mm 1 mps 759 mmHg 95%

    Day after tomorrow, 26 September, Tuesday

    Time Temperature Precipitation Wind Pressure Humidity
    00:00 +13°C° 0 mm 1 mps 759 mmHg 95%
    01:00 +13°C° 0 mm 1 mps 759 mmHg 95%
    02:00 +13°C° 0 mm 1 mps 759 mmHg 95%
    03:00 +12°C° 0 mm 0 mps 759 mmHg 95%
    04:00 +12°C° 0 mm 0 mps 759 mmHg 95%
    05:00 +12°C° 0 mm 1 mps 759 mmHg 95%
    06:00 +12°C° 0 mm 1 mps 759 mmHg 95%
    07:00 +13°C° 0.1 mm 1 mps 759 mmHg 92%
    08:00 +14°C° 0.1 mm 1 mps 759 mmHg 89%
    09:00 +16°C° 0.1 mm 1 mps 760 mmHg 86%
    10:00 +16°C° 0.1 mm 2 mps 760 mmHg 83%
    11:00 +17°C° 0.1 mm 2 mps 760 mmHg 80%
    12:00 +18°C° 0.1 mm 3 mps 760 mmHg 77%
    13:00 +18°C° 0.1 mm 3 mps 760 mmHg 77%
    14:00 +18°C° 0.1 mm 3 mps 759 mmHg 77%
    15:00 +18°C° 0.1 mm 3 mps 759 mmHg 76%
    16:00 +17°C° 0 mm 3 mps 759 mmHg 81%
    17:00 +16°C° 0 mm 3 mps 759 mmHg 85%
    18:00 +14°C° 0 mm 3 mps 759 mmHg 89%
    19:00 +13°C° 0 mm 3 mps 759 mmHg 91%
    20:00 +13°C° 0 mm 3 mps 759 mmHg 92%
    21:00 +12°C° 0 mm 3 mps 759 mmHg 93%
    22:00 +12°C° 0 mm 3 mps 759 mmHg 94%
    23:00 +12°C° 0 mm 3 mps 759 mmHg 94%

    27 September, Wednesday

    Time Temperature Precipitation Wind Pressure Humidity
    00:00 +12°C° 0 mm 3 mps 759 mmHg 95%
    01:00 +12°C° 0 mm 3 mps 759 mmHg 95%
    02:00 +12°C° 0 mm 3 mps 758 mmHg 95%
    03:00 +12°C° 0 mm 4 mps 758 mmHg 95%
    04:00 +12°C° 0 mm 4 mps 758 mmHg 95%
    05:00 +12°C° 0 mm 4 mps 758 mmHg 95%
    06:00 +12°C° 0 mm 4 mps 758 mmHg 94%
    07:00 +13°C° 0 mm 5 mps 758 mmHg 91%
    08:00 +14°C° 0 mm 6 mps 758 mmHg 88%
    09:00 +15°C° 0 mm 6 mps 757 mmHg 84%
    10:00 +16°C° 0 mm 6 mps 757 mmHg 79%
    11:00 +16°C° 0 mm 6 mps 757 mmHg 75%
    12:00 +17°C° 0 mm 7 mps 757 mmHg 70%
    13:00 +17°C° 0 mm 7 mps 756 mmHg 70%
    14:00 +17°C° 0 mm 7 mps 756 mmHg 70%
    15:00 +17°C° 0 mm 7 mps 755 mmHg 70%
    16:00 +16°C° 0.4 mm 6 mps 755 mmHg 74%
    17:00 +15°C° 0.4 mm 6 mps 755 mmHg 78%
    18:00 +15°C° 0.4 mm 6 mps 755 mmHg 83%
    19:00 +14°C° 2.1 mm 6 mps 755 mmHg 85%
    20:00 +14°C° 2.1 mm 7 mps 755 mmHg 87%
    21:00 +12°C° 2.1 mm 7 mps 755 mmHg 89%
    22:00 +12°C° 1.7 mm 7 mps 755 mmHg 90%
    23:00 +12°C° 1.7 mm 7 mps 755 mmHg 90%

    28 September, Thursday

    Time Temperature Precipitation Wind Pressure Humidity
    00:00 +12°C° 1.7 mm 7 mps 755 mmHg 91%
    01:00 +13°C° 0.1 mm 6 mps 755 mmHg 92%
    02:00 +13°C° 0.1 mm 5 mps 755 mmHg 92%
    03:00 +13°C° 0.1 mm 5 mps 755 mmHg 93%
    04:00 +12°C° 0 mm 5 mps 756 mmHg 92%
    05:00 +10°C° 0 mm 5 mps 756 mmHg 91%
    06:00 +9°C° 0 mm 5 mps 757 mmHg 90%
    07:00 +10°C° 0 mm 5 mps 758 mmHg 87%
    08:00 +12°C° 0 mm 4 mps 758 mmHg 83%
    09:00 +12°C° 0 mm 4 mps 759 mmHg 79%
    10:00 +13°C° 0 mm 4 mps 759 mmHg 74%
    11:00 +16°C° 0 mm 3 mps 759 mmHg 69%
    12:00 +17°C° 0 mm 2 mps 760 mmHg 65%
    13:00 +17°C° 0 mm 2 mps 759 mmHg 64%
    14:00 +17°C° 0 mm 2 mps 759 mmHg 62%
    15:00 +17°C° 0 mm 2 mps 759 mmHg 61%
    16:00 +16°C° 0 mm 3 mps 759 mmHg 67%
    17:00 +14°C° 0 mm 3 mps 758 mmHg 73%
    18:00 +13°C° 0 mm 4 mps 758 mmHg 79%
    19:00 +13°C° 0 mm 5 mps 758 mmHg 78%
    20:00 +13°C° 0 mm 5 mps 758 mmHg 78%
    21:00 +13°C° 0 mm 5 mps 758 mmHg 77%
    22:00 +13°C° 0 mm 5 mps 757 mmHg 78%
    23:00 +13°C° 0 mm 6 mps 756 mmHg 80%

    29 September, Friday

    Time Temperature Precipitation Wind Pressure Humidity
    00:00 +13°C° 0 mm 6 mps 756 mmHg 82%
    01:00 +13°C° 0.1 mm 6 mps 755 mmHg 81%
    02:00 +13°C° 0.1 mm 6 mps 754 mmHg 80%
    03:00 +13°C° 0.1 mm 6 mps 754 mmHg 79%
    04:00 +13°C° 1.4 mm 6 mps 753 mmHg 82%
    05:00 +12°C° 1.4 mm 7 mps 753 mmHg 86%
    06:00 +12°C° 1.4 mm 7 mps 752 mmHg 89%
    07:00 +12°C° 0.7 mm 7 mps 752 mmHg 89%
    08:00 +14°C° 0.7 mm 6 mps 752 mmHg 89%
    09:00 +14°C° 0.7 mm 6 mps 751 mmHg 90%
    10:00 +14°C° 0.6 mm 5 mps 751 mmHg 90%
    11:00 +15°C° 0.6 mm 5 mps 751 mmHg 89%
    12:00 +15°C° 0.6 mm 5 mps 751 mmHg 89%
    13:00 +15°C° 0.1 mm 5 mps 750 mmHg 87%
    14:00 +15°C° 0.1 mm 4 mps 750 mmHg 85%
    15:00 +14°C° 0.1 mm 4 mps 750 mmHg 83%
    16:00 +13°C° 0 mm 4 mps 750 mmHg 84%
    17:00 +12°C° 0 mm 4 mps 751 mmHg 85%
    18:00 +10°C° 0 mm 5 mps 751 mmHg 85%
    19:00 +10°C° 0 mm 5 mps 751 mmHg 86%
    20:00 +9°C° 0 mm 5 mps 752 mmHg 87%
    21:00 +8°C° 0 mm 5 mps 752 mmHg 87%
    22:00 +9°C° 0.1 mm 5 mps 752 mmHg 88%
    23:00 +9°C° 0.1 mm 5 mps 752 mmHg 88%
    Show more